Search the data

BODC Cruise Metadata Report for RV Jakov Smirnitskiy cruise ISSS-08 (GIPY13)

Introduction

This report collates information from the BODC cruise inventory and oceanographic databases. It presents

Cruise Inventory Information

Long name RV Jakov Smirnitskiy cruise ISSS-08 (GIPY13)
Short name ISSS-08 (GIPY13)
Objectives and Narrative This proposal uses a unique opportunity to examine an essential component of global biogeochemical cycles. The logistical costs chartering Russian research vessels for the 2008 Nordic LSBI expedition (IPY-562) are financed by KAWS. This include estuary-shelf-slope-basin transects for collection of waters and sediments from the Siberian Shelf. This proposal covers project costs to study the supply and transport of micronutrients (Zn, Ni, Cd, Cu, Co, Mn, Fe) and trace element isotopic tracers (Nd and U isotopes, Ba) from the Siberian Arctic rivers, across the continental shelf, and into the central Arctic Ocean. This will be used to constrain whether the shelf acts as a net source for essential biogeochemical trace elements during shelf transport. This is a part of the international GEOTRACES project, which has identified freshwater inputs into the Arctic, and Arctic shelf-water exchange, as key issues. Sampling includes "trace metal clean" water sampling, separation of larger particles and colloids, sediment coring and pore water extraction. Short-lived 234Th will be used to estimate removal rates in the water column. U and Nd isotopes, which have been found to trace water-shelf interactions in the Arctic, will be used for provenance determination and water-sediment exchange. The results will provide an important baseline on key trace elements on the Siberian Shelf, which is crucial knowledge for future studies of the response of the Arctic region to global climate change.
Ship RV Jakov Smirnitskiy
Departure Port Kirkenes, Norway
Departure Date 2008-08-15
Arrival Port Kirkenes, Norway
Arrival Date 2008-09-28
Principal Scientist(s) Igor Semiletov (Uni. of Alaska, Institute of Marine Sciences)
Responsible Organisation University of Edinburgh Department of Geology
Associated Project(s) GEOTRACES
IHB Sea Areas Visited Barents Sea, Laptev Sea (or Nordenskjold Sea), Kara Sea, East Siberian Sea
Marsden Squares Visited 236/247/248/249/271/272/273/274/275/276/277/278/279/280/281/282/283/284
Work Area Description Along the Siberian coast with focus on the Laptev and east Siberian Sea.
Work Area Bounding Polygon 60N,30E; 80N,30E; 80N,180E; 60N,180E; 60N,30E
Southern Limit 60N
Northern Limit 80N
Western Limit 30E
Eastern Limit 180E

Cruise Inventory Datasets

No information on datasets is currently available for this cruise

Cruise Inventory Mooring/Buoy Operations

No information on datasets is currently available

Summary of BODC Data Holdings for the Cruise

National Oceanographic Database

Summary

# Series Instrument Description Parameters
133 CTD/STD cast Raw suspended particulate material concentration sensor output
Reference numbers
Salinity of the water column
Temperature of the water column
Vertical spatial coordinates
1 CTD/STD cast Reference numbers
Salinity of the water column
Temperature of the water column
Vertical spatial coordinates

Note: Parameter terms are taken from the BODC Parameter Discovery Vocabulary XML (SKOS)

Full List

BODC Reference Instrument Description Date/Time Location  
1066475 CTD/STD cast 2008-08-18 05:49Z 71° 39' N, 64° 38' E Click for more
1066487 CTD/STD cast 2008-08-19 00:59Z 73° 24' N, 73° 0' E Click for more
1066499 CTD/STD cast 2008-08-19 23:02Z 73° 29' N, 79° 52' E Click for more
1066506 CTD/STD cast 2008-08-23 16:39Z 75° 59' N, 129° 58' E Click for more
1066518 CTD/STD cast 2008-08-24 08:22Z 75° 16' N, 130° 1' E Click for more
1066531 CTD/STD cast 2008-08-24 14:33Z 74° 43' N, 130° 1' E Click for more
1066543 CTD/STD cast 2008-08-24 19:18Z 74° 7' N, 130° 0' E Click for more
1066555 CTD/STD cast 2008-08-24 22:04Z 73° 34' N, 130° 0' E Click for more
1066567 CTD/STD cast 2008-08-25 01:14Z 73° 22' N, 130° 0' E Click for more
1066579 CTD/STD cast 2008-08-25 02:41Z 73° 10' N, 130° 0' E Click for more
1066580 CTD/STD cast 2008-08-25 06:17Z 73° 1' N, 129° 59' E Click for more
1066592 CTD/STD cast 2008-08-26 01:51Z 71° 55' N, 132° 34' E Click for more
1066611 CTD/STD cast 2008-08-26 09:05Z 71° 58' N, 131° 42' E Click for more
1066623 CTD/STD cast 2008-08-27 19:39Z 71° 37' N, 130° 3' E Click for more
1066635 CTD/STD cast 2008-08-28 04:05Z 71° 34' N, 130° 15' E Click for more
1066647 CTD/STD cast 2008-08-28 06:04Z 71° 37' N, 130° 19' E Click for more
1066659 CTD/STD cast 2008-08-28 08:02Z 71° 37' N, 130° 11' E Click for more
1066660 CTD/STD cast 2008-08-29 01:20Z 73° 1' N, 133° 0' E Click for more
1066672 CTD/STD cast 2008-08-29 08:23Z 73° 6' N, 137° 18' E Click for more
1066684 CTD/STD cast 2008-08-29 16:06Z 73° 18' N, 139° 53' E Click for more
1066696 CTD/STD cast 2008-08-29 18:36Z 73° 5' N, 140° 21' E Click for more
1066703 CTD/STD cast 2008-08-29 20:44Z 72° 52' N, 140° 37' E Click for more
1066715 CTD/STD cast 2008-08-29 22:49Z 72° 53' N, 140° 37' E Click for more
1066727 CTD/STD cast 2008-08-30 03:28Z 72° 47' N, 142° 40' E Click for more
1066739 CTD/STD cast 2008-08-30 13:17Z 73° 3' N, 142° 40' E Click for more
1066740 CTD/STD cast 2008-08-30 16:14Z 73° 8' N, 142° 40' E Click for more
1066752 CTD/STD cast 2008-08-31 06:49Z 72° 27' N, 150° 36' E Click for more
1066764 CTD/STD cast 2008-08-31 18:12Z 72° 34' N, 152° 22' E Click for more
1066776 CTD/STD cast 2008-09-01 00:03Z 72° 39' N, 154° 11' E Click for more
1066788 CTD/STD cast 2008-09-01 04:50Z 72° 12' N, 153° 10' E Click for more
1066807 CTD/STD cast 2008-09-01 13:31Z 71° 21' N, 152° 9' E Click for more
1066819 CTD/STD cast 2008-09-02 13:59Z 71° 6' N, 161° 41' E Click for more
1066820 CTD/STD cast 2008-09-02 18:58Z 70° 34' N, 161° 13' E Click for more
1066832 CTD/STD cast 2008-09-03 04:33Z 70° 10' N, 161° 13' E Click for more
1066844 CTD/STD cast 2008-09-03 09:18Z 69° 45' N, 162° 19' E Click for more
1066856 CTD/STD cast 2008-09-03 12:14Z 69° 42' N, 162° 41' E Click for more
1066868 CTD/STD cast 2008-09-03 23:23Z 69° 49' N, 164° 3' E Click for more
1066881 CTD/STD cast 2008-09-04 03:57Z 69° 49' N, 166° 0' E Click for more
1066893 CTD/STD cast 2008-09-04 08:42Z 70° 7' N, 168° 0' E Click for more
1066900 CTD/STD cast 2008-09-04 15:19Z 70° 42' N, 169° 7' E Click for more
1066912 CTD/STD cast 2008-09-04 19:24Z 71° 13' N, 169° 22' E Click for more
1066924 CTD/STD cast 2008-09-04 20:21Z 71° 13' N, 169° 21' E Click for more
1066936 CTD/STD cast 2008-09-05 01:57Z 71° 28' N, 170° 33' E Click for more
1066948 CTD/STD cast 2008-09-05 06:38Z 71° 58' N, 171° 47' E Click for more
1066961 CTD/STD cast 2008-09-05 09:36Z 72° 16' N, 171° 59' E Click for more
1066973 CTD/STD cast 2008-09-06 09:12Z 71° 24' N, 175° 30' W Click for more
1066985 CTD/STD cast 2008-09-06 10:11Z 71° 24' N, 175° 20' W Click for more
1066997 CTD/STD cast 2008-09-06 10:56Z 71° 24' N, 175° 10' W Click for more
1067000 CTD/STD cast 2008-09-06 11:53Z 71° 24' N, 175° 0' W Click for more
1067012 CTD/STD cast 2008-09-06 12:36Z 71° 24' N, 174° 51' W Click for more
1067024 CTD/STD cast 2008-09-06 13:03Z 71° 24' N, 174° 41' W Click for more
1067036 CTD/STD cast 2008-09-06 14:12Z 71° 24' N, 174° 31' W Click for more
1067048 CTD/STD cast 2008-09-06 15:08Z 71° 24' N, 174° 21' W Click for more
1067061 CTD/STD cast 2008-09-06 15:49Z 71° 24' N, 174° 12' W Click for more
1067073 CTD/STD cast 2008-09-06 19:48Z 71° 48' N, 176° 0' W Click for more
1067085 CTD/STD cast 2008-09-06 20:48Z 71° 49' N, 175° 50' W Click for more
1067097 CTD/STD cast 2008-09-06 21:27Z 71° 50' N, 175° 40' W Click for more
1067104 CTD/STD cast 2008-09-06 22:19Z 71° 51' N, 175° 31' W Click for more
1067116 CTD/STD cast 2008-09-06 22:58Z 71° 52' N, 175° 21' W Click for more
1067128 CTD/STD cast 2008-09-06 23:55Z 71° 54' N, 175° 12' W Click for more
1067141 CTD/STD cast 2008-09-07 00:38Z 71° 55' N, 175° 2' W Click for more
1067153 CTD/STD cast 2008-09-07 01:34Z 71° 56' N, 174° 52' W Click for more
1067165 CTD/STD cast 2008-09-07 02:13Z 71° 57' N, 174° 43' W Click for more
1067177 CTD/STD cast 2008-09-07 03:09Z 71° 58' N, 174° 33' W Click for more
1067189 CTD/STD cast 2008-09-07 03:50Z 72° 0' N, 174° 24' W Click for more
1067190 CTD/STD cast 2008-09-07 08:08Z 72° 18' N, 176° 30' W Click for more
1067208 CTD/STD cast 2008-09-07 09:09Z 72° 18' N, 176° 19' W Click for more
1067221 CTD/STD cast 2008-09-07 09:50Z 72° 18' N, 176° 8' W Click for more
1067233 CTD/STD cast 2008-09-07 10:49Z 72° 19' N, 175° 57' W Click for more
1067245 CTD/STD cast 2008-09-07 11:35Z 72° 19' N, 175° 46' W Click for more
1067257 CTD/STD cast 2008-09-07 12:34Z 72° 19' N, 175° 35' W Click for more
1067269 CTD/STD cast 2008-09-07 13:19Z 72° 20' N, 175° 24' W Click for more
1067270 CTD/STD cast 2008-09-07 14:15Z 72° 20' N, 175° 13' W Click for more
1067282 CTD/STD cast 2008-09-07 14:59Z 72° 21' N, 175° 2' W Click for more
1067294 CTD/STD cast 2008-09-07 18:41Z 72° 46' N, 173° 36' W Click for more
1067301 CTD/STD cast 2008-09-07 19:53Z 72° 50' N, 173° 42' W Click for more
1067313 CTD/STD cast 2008-09-07 20:43Z 72° 54' N, 173° 48' W Click for more
1067325 CTD/STD cast 2008-09-07 21:44Z 72° 59' N, 173° 53' W Click for more
1067337 CTD/STD cast 2008-09-07 22:33Z 73° 3' N, 173° 58' W Click for more
1067349 CTD/STD cast 2008-09-07 23:37Z 73° 7' N, 174° 4' W Click for more
1067350 CTD/STD cast 2008-09-08 00:33Z 73° 12' N, 174° 10' W Click for more
1067362 CTD/STD cast 2008-09-08 03:51Z 73° 42' N, 174° 19' W Click for more
1067374 CTD/STD cast 2008-09-08 07:07Z 73° 59' N, 174° 31' W Click for more
1067386 CTD/STD cast 2008-09-08 22:17Z 75° 48' N, 179° 54' E Click for more
1067398 CTD/STD cast 2008-09-09 01:25Z 75° 42' N, 178° 48' E Click for more
1067405 CTD/STD cast 2008-09-09 04:08Z 75° 36' N, 177° 42' E Click for more
1067417 CTD/STD cast 2008-09-09 06:38Z 75° 30' N, 176° 36' E Click for more
1067429 CTD/STD cast 2008-09-09 08:53Z 75° 24' N, 175° 30' E Click for more
1067430 CTD/STD cast 2008-09-09 11:05Z 75° 18' N, 174° 24' E Click for more
1067442 CTD/STD cast 2008-09-09 14:12Z 75° 12' N, 173° 18' E Click for more
1067454 CTD/STD cast 2008-09-09 16:29Z 75° 6' N, 172° 11' E Click for more
1067466 CTD/STD cast 2008-09-09 19:34Z 75° 0' N, 171° 5' E Click for more
1067478 CTD/STD cast 2008-09-10 00:04Z 74° 40' N, 172° 23' E Click for more
1067491 CTD/STD cast 2008-09-10 09:51Z 74° 25' N, 170° 51' E Click for more
1067509 CTD/STD cast 2008-09-10 14:22Z 74° 25' N, 168° 30' E Click for more
1067510 CTD/STD cast 2008-09-10 19:13Z 74° 25' N, 166° 0' E Click for more
1067522 CTD/STD cast 2008-09-11 00:32Z 74° 25' N, 163° 39' E Click for more
1067534 CTD/STD cast 2008-09-11 04:29Z 74° 25' N, 161° 20' E Click for more
1067546 CTD/STD cast 2008-09-11 09:18Z 74° 58' N, 161° 2' E Click for more
1067558 CTD/STD cast 2008-09-11 11:25Z 75° 16' N, 160° 53' E Click for more
1067571 CTD/STD cast 2008-09-11 14:26Z 75° 33' N, 160° 45' E Click for more
1067583 CTD/STD cast 2008-09-11 19:33Z 75° 10' N, 163° 35' E Click for more
1067595 CTD/STD cast 2008-09-11 23:03Z 75° 43' N, 164° 4' E Click for more
1067602 CTD/STD cast 2008-09-12 04:53Z 76° 7' N, 160° 27' E Click for more
1067614 CTD/STD cast 2008-09-12 08:05Z 76° 33' N, 160° 4' E Click for more
1067626 CTD/STD cast 2008-09-12 12:05Z 76° 43' N, 157° 54' E Click for more
1067638 CTD/STD cast 2008-09-12 16:31Z 76° 55' N, 155° 10' E Click for more
1067651 CTD/STD cast 2008-09-12 20:32Z 77° 10' N, 152° 37' E Click for more
1067663 CTD/STD cast 2008-09-13 00:07Z 76° 58' N, 150° 17' E Click for more
1067675 CTD/STD cast 2008-09-13 03:05Z 76° 46' N, 149° 13' E Click for more
1067687 CTD/STD cast 2008-09-13 20:06Z 75° 33' N, 155° 52' E Click for more
1067699 CTD/STD cast 2008-09-13 23:11Z 75° 21' N, 157° 27' E Click for more
1067706 CTD/STD cast 2008-09-14 01:47Z 75° 9' N, 158° 49' E Click for more
1067718 CTD/STD cast 2008-09-14 04:03Z 75° 0' N, 160° 0' E Click for more
1067731 CTD/STD cast 2008-09-14 05:54Z 74° 49' N, 159° 19' E Click for more
1067743 CTD/STD cast 2008-09-14 08:12Z 74° 54' N, 160° 18' E Click for more
1067755 CTD/STD cast 2008-09-14 11:23Z 74° 50' N, 158° 15' E Click for more
1067767 CTD/STD cast 2008-09-14 13:24Z 74° 34' N, 158° 15' E Click for more
1067779 CTD/STD cast 2008-09-14 18:28Z 74° 34' N, 157° 0' E Click for more
1067780 CTD/STD cast 2008-09-14 20:38Z 74° 20' N, 157° 0' E Click for more
1067792 CTD/STD cast 2008-09-14 22:37Z 74° 19' N, 156° 0' E Click for more
1067811 CTD/STD cast 2008-09-15 00:56Z 74° 0' N, 156° 0' E Click for more
1067823 CTD/STD cast 2008-09-15 05:25Z 73° 17' N, 155° 10' E Click for more
1067835 CTD/STD cast 2008-09-16 00:09Z 74° 22' N, 145° 16' E Click for more
1067847 CTD/STD cast 2008-09-16 15:14Z 74° 30' N, 136° 0' E Click for more
1067859 CTD/STD cast 2008-09-16 19:44Z 75° 15' N, 134° 59' E Click for more
1067860 CTD/STD cast 2008-09-16 22:04Z 75° 25' N, 134° 0' E Click for more
1067872 CTD/STD cast 2008-09-17 01:08Z 75° 54' N, 134° 19' E Click for more
1067884 CTD/STD cast 2008-09-17 04:49Z 76° 22' N, 132° 37' E Click for more
1067896 CTD/STD cast 2008-09-17 08:23Z 76° 33' N, 130° 9' E Click for more
1067903 CTD/STD cast 2008-09-17 11:14Z 76° 59' N, 130° 21' E Click for more
1067915 CTD/STD cast 2008-09-18 06:49Z 76° 24' N, 125° 46' E Click for more
1067927 CTD/STD cast 2008-09-18 07:33Z 76° 23' N, 125° 46' E Click for more
1067939 CTD/STD cast 2008-09-18 08:57Z 76° 24' N, 125° 28' E Click for more

Project Database

# Events Gear Type Parameters Held
134 CTD frame plus rosette sampler
Dissolved metal concentrations in the water column
Stable isotopes in water bodies
11 All plastic clean surface pumped supply Dissolved metal concentrations in the water column
Stable isotopes in water bodies

Note: Parameter terms are taken from the BODC Parameter Discovery Vocabulary XML (SKOS)

References

Track Charts

Track Chart

Reports

Cruise Report